[[{"header":{"parameterUnit":"m.s-1","parameterCategory":1,"la1":30.2991,"la2":30.254,"lo1":-89.0895,"lo2":-89.0444,"dy":0.0017,"dx":0.0017,"nx":28,"ny":28,"refTime":"2024-02-12T09:00:00:Z","depth":0,"parameterNumber":2,"parameterNumberName":"U-component_of_WINDS"},"data":[0,0,0,0,0,0,0,0,0,0,0,0,0,0,0,0,0,0,0,0,0,0,0,0,0,0,0,0,0,0,0,0,0,0,0,0,0,0,0,0,0,0,0,0,0,0,0,0,0,0,0,0,0,0,0,0,0,0,-0.5794,-0.5792,0,-0.554,-0.5537,-0.5534,-0.5432,-0.5432,-0.5433,-0.5433,-0.5157,-0.515,-0.5142,0,0,0,0,0,0,0,0,0,0,0,0,0,-0.6173,-0.6166,-0.5795,-0.5791,-0.5788,-0.5541,-0.5537,-0.5534,-0.5431,-0.5432,-0.5433,-0.5434,-0.516,-0.5151,-0.5141,0,0,0,0,0,0,0,0,0,0,0,0,0,-0.5972,-0.6164,-0.5795,-0.5708,-0.5698,-0.5541,-0.5537,-0.5533,-0.5431,-0.5432,-0.5433,-0.5434,-0.5163,-0.5152,-0.514,-0.5047,0,0,-0.5103,-0.5098,0,0,0,0,0,0,0,0,-0.5984,-0.5958,-0.5724,-0.5714,-0.5702,-0.5519,-0.5569,-0.5369,-0.5431,-0.5532,-0.5433,-0.5435,-0.5276,-0.5255,-0.5204,-0.5034,-0.5022,-0.5102,-0.5095,-0.509,-0.5087,0,0,0,0,0,0,0,-0.5998,-0.5969,-0.5693,-0.572,-0.5707,-0.5675,-0.5648,-0.5531,-0.5401,-0.5523,-0.5515,-0.5487,-0.527,-0.5216,-0.5197,-0.5018,-0.5103,-0.5092,-0.5085,-0.508,-0.475,-0.4749,0,0,0,0,0,0,-0.6029,-0.5981,-0.5701,-0.5686,-0.5849,-0.5668,-0.5637,-0.5576,-0.5402,-0.5377,-0.5487,-0.5483,-0.5236,-0.5211,-0.5187,-0.5062,-0.509,-0.5079,-0.5072,-0.4752,-0.475,-0.4748,0,0,0,0,0,0,-0.6037,-0.6005,-0.5712,-0.5831,-0.5792,-0.566,-0.5593,-0.5571,-0.5517,-0.5375,-0.5349,-0.5457,-0.5236,-0.5204,-0.5082,-0.5051,-0.5074,-0.5063,-0.4754,-0.4751,-0.4749,-0.4816,0,0,0,0,0,0,-0.6048,-0.6009,-0.5977,-0.5832,-0.5786,-0.5617,-0.5591,-0.5565,-0.5499,-0.5492,-0.534,-0.5316,-0.5234,-0.51,-0.507,-0.5035,-0.5053,-0.4756,-0.4753,-0.475,-0.4815,-0.4816,-0.4816,0,0,0,0,0,-0.6062,-0.6004,-0.5976,-0.5943,-0.5744,-0.5616,-0.5589,-0.5501,-0.5497,-0.546,-0.5368,-0.5321,-0.506,-0.5089,-0.5054,-0.5015,-0.4757,-0.4754,-0.475,-0.4815,-0.4816,-0.4816,0,0,0,0,0,0,-0.6145,-0.5983,-0.5951,-0.5845,-0.5745,-0.5599,-0.5551,-0.5505,-0.5401,-0.5398,-0.5288,-0.5254,-0.514,-0.5065,-0.51,-0.4912,-0.4904,-0.4894,-0.4966,-0.4965,-0.4965,-0.4985,-0.5044,0,0,0,0,0,-0.6152,-0.6067,-0.5928,-0.5847,-0.5799,-0.5684,-0.5625,-0.5565,-0.5456,-0.5412,-0.531,-0.5201,-0.5093,-0.5025,-0.4919,-0.4804,-0.4765,-0.4759,-0.476,-0.4761,-0.4752,-0.4678,-0.4672,-0.4736,-0.4736,-0.4736,0,0,-0.6163,-0.6064,-0.6017,-0.5861,-0.5777,-0.5685,-0.5649,-0.5555,-0.5483,-0.5395,-0.5275,-0.5196,-0.5066,-0.4946,-0.4887,-0.4879,-0.4725,-0.4756,-0.4758,-0.4748,-0.4673,-0.4667,-0.4662,-0.4734,-0.4734,-0.4735,0,0,-0.6137,-0.6056,-0.5978,-0.5895,-0.5769,-0.5692,-0.5673,-0.5532,-0.5478,-0.5356,-0.5286,-0.5196,-0.5016,-0.4924,-0.4854,-0.4787,-0.4737,-0.4755,-0.4755,-0.4685,-0.468,-0.4674,-0.4645,-0.4637,-0.4747,-0.4747,-0.4747,0,-0.6166,-0.6031,-0.5942,-0.5851,-0.5781,-0.5701,-0.5616,-0.5538,-0.5382,-0.5332,-0.5327,-0.5095,-0.5002,-0.4856,-0.484,-0.4787,-0.4756,-0.4771,-0.4689,-0.4682,-0.4676,-0.4647,-0.4637,-0.475,-0.4749,-0.4749,-0.4749,0,-0.6069,-0.5976,-0.5926,-0.5782,-0.5706,-0.5619,-0.5511,-0.5443,-0.5389,-0.531,-0.5182,-0.5067,-0.4934,-0.4894,-0.484,-0.4738,-0.4736,-0.4712,-0.4701,-0.4674,-0.4644,-0.4633,-0.4754,-0.4753,-0.4752,-0.4751,0,0,-0.6091,-0.5897,-0.588,-0.5811,-0.5664,-0.5586,-0.549,-0.5364,-0.5306,-0.5199,-0.5112,-0.4959,-0.4933,-0.4853,-0.4786,-0.4725,-0.4671,-0.4705,-0.47,-0.4699,-0.4545,-0.4563,-0.4552,-0.4638,-0.4635,-0.4633,-0.4554,0,-0.6043,-0.5876,-0.5791,-0.5658,-0.5566,-0.5485,-0.5401,-0.5298,-0.522,-0.5125,-0.5035,-0.4927,-0.4904,-0.4855,-0.479,-0.4692,-0.4638,-0.4697,-0.4548,-0.4544,-0.4582,-0.4537,-0.4557,-0.4489,-0.4542,-0.454,-0.4539,0,-0.5966,-0.5863,-0.5722,-0.5581,-0.5538,-0.5466,-0.5339,-0.5252,-0.5129,-0.5076,-0.4985,-0.4919,-0.4807,-0.4805,-0.4645,-0.4687,-0.462,-0.4562,-0.4556,-0.4537,-0.4539,-0.4513,-0.4465,-0.4454,-0.4521,-0.4522,-0.4523,0,-0.5991,-0.5817,-0.5708,-0.5652,-0.5485,-0.5435,-0.5361,-0.5241,-0.5168,-0.5055,-0.5005,-0.4879,-0.4809,-0.4709,-0.4607,-0.4617,-0.4454,-0.4446,-0.4401,-0.4403,-0.4369,-0.4372,-0.4307,-0.4332,-0.4332,-0.4332,-0.4333,0,-0.5945,-0.5861,-0.5717,-0.5651,-0.555,-0.5449,-0.5351,-0.527,-0.5162,-0.5072,-0.4993,-0.4909,-0.4781,-0.4678,-0.4596,-0.4472,-0.4442,-0.439,-0.4369,-0.4396,-0.4402,-0.4349,-0.435,-0.4329,-0.433,-0.4331,-0.4331,0,-0.5957,-0.5859,-0.5734,-0.5586,-0.5546,-0.5479,-0.5348,-0.5275,-0.5192,-0.5079,-0.5046,-0.4913,-0.4787,-0.4676,-0.4509,-0.4453,-0.4324,-0.43,-0.4368,-0.4356,-0.4315,-0.4319,-0.4211,-0.4188,-0.4233,-0.4233,-0.4233,0,-0.5934,-0.5868,-0.5712,-0.5649,-0.5578,-0.5477,-0.5402,-0.5297,-0.5221,-0.5073,-0.5016,-0.4886,-0.4776,-0.4577,-0.4461,-0.433,-0.4299,-0.427,-0.4279,-0.4305,-0.4292,-0.4297,-0.4286,-0.427,-0.427,-0.427,-0.427,0,-0.5902,-0.5855,-0.5754,-0.5634,-0.5548,-0.5447,-0.5343,-0.5293,-0.5166,-0.5084,-0.4957,-0.4872,-0.47,-0.4568,-0.4424,-0.434,-0.428,-0.4268,-0.425,-0.4275,-0.4316,-0.4288,-0.4365,-0.4271,-0.4271,-0.4271,-0.4271,-0.4271,-0.5892,-0.5827,-0.5707,-0.5594,-0.5505,-0.5408,-0.5332,-0.5239,-0.5133,-0.4989,-0.4931,-0.4799,-0.4668,-0.4469,-0.4385,-0.4274,-0.4264,-0.4239,-0.4232,-0.4226,-0.4229,-0.4336,-0.4248,-0.4248,-0.4248,-0.4247,-0.4247,0,-0.5853,-0.5771,-0.5669,-0.5526,-0.5435,-0.5393,-0.5273,-0.5198,-0.5085,-0.4972,-0.4865,-0.4714,-0.4584,-0.4456,-0.4317,-0.4253,-0.4221,-0.4219,-0.4221,-0.4201,-0.4249,-0.4277,-0.4247,-0.4247,-0.4247,-0.4247,-0.4247,-0.4247,-0.5822,-0.5708,-0.5646,-0.5482,-0.5398,-0.5273,-0.5207,-0.5114,-0.5022,-0.4859,-0.4753,-0.4672,-0.4549,-0.4399,-0.4275,-0.424,-0.419,-0.4195,-0.4151,-0.4198,-0.4199,-0.42,-0.4226,-0.4186,-0.4186,-0.4112,-0.4112,-0.4111]},{"header":{"parameterUnit":"m.s-1","parameterCategory":1,"la1":30.2991,"la2":30.254,"lo1":-89.0895,"lo2":-89.0444,"dy":0.0017,"dx":0.0017,"nx":28,"ny":28,"refTime":"2024-02-12T09:00:00:Z","depth":0,"parameterNumber":3,"parameterNumberName":"V-component_of_WINDS"},"data":[0,0,0,0,0,0,0,0,0,0,0,0,0,0,0,0,0,0,0,0,0,0,0,0,0,0,0,0,0,0,0,0,0,0,0,0,0,0,0,0,0,0,0,0,0,0,0,0,0,0,0,0,0,0,0,0,0,0,2.8127,2.8127,0,2.8116,2.8116,2.8116,2.8061,2.806,2.8059,2.8058,2.8047,2.8048,2.8049,0,0,0,0,0,0,0,0,0,0,0,0,0,2.8098,2.8099,2.8127,2.8127,2.8126,2.8116,2.8116,2.8116,2.8062,2.806,2.8058,2.8057,2.8047,2.8048,2.8049,0,0,0,0,0,0,0,0,0,0,0,0,0,2.8102,2.8099,2.8127,2.8098,2.8095,2.8116,2.8116,2.8116,2.8062,2.806,2.8058,2.8056,2.8046,2.8048,2.8049,2.8097,0,0,2.8053,2.8054,0,0,0,0,0,0,0,0,2.8101,2.8103,2.8102,2.81,2.8097,2.8088,2.8102,2.811,2.8062,2.8075,2.8057,2.8055,2.8062,2.8062,2.8065,2.8096,2.8096,2.8054,2.8054,2.8055,2.8055,0,0,0,0,0,0,0,2.8101,2.8103,2.8123,2.8102,2.8099,2.8085,2.8084,2.8103,2.808,2.8073,2.8069,2.8069,2.806,2.8063,2.8064,2.8096,2.8054,2.8055,2.8056,2.8056,2.8165,2.8167,0,0,0,0,0,0,2.8105,2.8103,2.8123,2.8122,2.8094,2.8087,2.8085,2.8093,2.8079,2.8075,2.8071,2.8066,2.8062,2.8062,2.8063,2.8118,2.8055,2.8056,2.8057,2.8163,2.8165,2.8168,0,0,0,0,0,0,2.8105,2.8107,2.8123,2.8111,2.8112,2.809,2.8099,2.8094,2.8097,2.8077,2.8073,2.8078,2.806,2.8061,2.8089,2.8117,2.8057,2.8058,2.816,2.8164,2.8166,2.8228,0,0,0,0,0,0,2.8104,2.8108,2.8126,2.8112,2.8113,2.815,2.8101,2.8095,2.8099,2.8094,2.8083,2.8079,2.8059,2.8087,2.809,2.8118,2.8059,2.8158,2.8162,2.8165,2.8224,2.8233,2.8241,0,0,0,0,0,2.8103,2.8144,2.8127,2.813,2.8136,2.8151,2.8152,2.8128,2.8102,2.812,2.8107,2.808,2.8113,2.809,2.8093,2.8122,2.8156,2.8161,2.8165,2.822,2.8231,2.8241,0,0,0,0,0,0,2.8163,2.8142,2.8123,2.8161,2.8158,2.8142,2.8164,2.8141,2.8146,2.814,2.811,2.8108,2.814,2.8133,2.8108,2.8167,2.813,2.8135,2.817,2.8181,2.8189,2.8191,2.806,0,0,0,0,0,2.818,2.8194,2.8175,2.821,2.821,2.8187,2.8193,2.8175,2.8171,2.8169,2.8158,2.8156,2.8165,2.8172,2.818,2.8222,2.8218,2.8243,2.8251,2.8259,2.8264,2.8285,2.8295,2.8183,2.8183,2.8183,0,0,2.8216,2.8207,2.8218,2.8222,2.8218,2.8233,2.8187,2.8205,2.8216,2.8172,2.8197,2.8189,2.8184,2.8218,2.8233,2.8214,2.8294,2.8265,2.827,2.8272,2.8291,2.8301,2.8311,2.8186,2.8185,2.8185,0,0,2.829,2.8285,2.8313,2.8309,2.8303,2.8287,2.8294,2.8281,2.8274,2.8298,2.8265,2.8277,2.8295,2.8292,2.8293,2.8363,2.8338,2.8367,2.8413,2.8433,2.8442,2.845,2.8475,2.8484,2.8372,2.8372,2.8372,0,2.8337,2.8358,2.833,2.835,2.8353,2.8313,2.8341,2.8338,2.8335,2.8338,2.8316,2.8336,2.833,2.8363,2.838,2.8382,2.8388,2.8369,2.8443,2.8451,2.8457,2.8481,2.8491,2.8375,2.8375,2.8375,2.8374,0,2.8415,2.843,2.8454,2.8451,2.8456,2.848,2.8455,2.8463,2.8444,2.843,2.8455,2.8445,2.845,2.8456,2.8438,2.8486,2.8474,2.8449,2.8411,2.8472,2.8494,2.8503,2.8381,2.8379,2.8378,2.8377,0,0,2.8529,2.8509,2.8518,2.8515,2.8504,2.8516,2.8537,2.8541,2.8549,2.8547,2.8564,2.8579,2.8554,2.8555,2.8536,2.8553,2.8609,2.8525,2.8524,2.8541,2.8662,2.8682,2.8693,2.8592,2.8594,2.8595,2.8662,0,2.86,2.8636,2.861,2.865,2.8664,2.8624,2.8643,2.8638,2.8625,2.8634,2.862,2.8631,2.8597,2.8598,2.8613,2.8599,2.8633,2.8594,2.8608,2.8609,2.8611,2.8704,2.8726,2.8791,2.8671,2.8672,2.8673,0,2.8689,2.869,2.8732,2.8716,2.8721,2.8738,2.8739,2.8748,2.8741,2.873,2.8731,2.8705,2.8725,2.8687,2.8713,2.8686,2.869,2.8684,2.8686,2.8687,2.8646,2.8709,2.8811,2.8821,2.8686,2.8685,2.8684,0,2.8768,2.878,2.8806,2.8805,2.8788,2.8801,2.8794,2.8785,2.8789,2.8789,2.8791,2.8794,2.8796,2.8798,2.8774,2.8749,2.8803,2.8764,2.8795,2.8796,2.8809,2.8809,2.8914,2.8811,2.881,2.881,2.881,0,2.885,2.8877,2.8841,2.8857,2.8886,2.8855,2.8884,2.8873,2.8865,2.8878,2.8844,2.8856,2.8824,2.8833,2.8814,2.8838,2.8839,2.8831,2.8826,2.8834,2.8836,2.8837,2.8832,2.8813,2.8812,2.8812,2.8811,0,2.8945,2.8921,2.8947,2.8928,2.8923,2.8945,2.8929,2.8942,2.8926,2.8943,2.8945,2.892,2.8929,2.8905,2.891,2.8897,2.8932,2.892,2.8935,2.8931,2.8964,2.8962,2.9075,2.9088,2.8976,2.8977,2.8978,0,2.9,2.9019,2.9002,2.9007,2.9003,2.9013,2.9016,2.8986,2.899,2.8982,2.8997,2.9003,2.9006,2.9022,2.9004,2.9008,2.8995,2.9034,2.8995,2.9003,2.8996,2.8995,2.8997,2.9043,2.9044,2.9045,2.9046,0,2.91,2.9087,2.9092,2.9094,2.9098,2.9098,2.9095,2.9102,2.9069,2.9076,2.9084,2.9086,2.9091,2.9097,2.9096,2.9089,2.9063,2.9058,2.9066,2.9075,2.9084,2.908,2.8958,2.9056,2.9055,2.9054,2.9054,2.9053,2.9176,2.9191,2.9181,2.9188,2.9182,2.918,2.9192,2.9176,2.9182,2.9184,2.9165,2.9177,2.9167,2.9164,2.9159,2.9167,2.9149,2.916,2.9163,2.9167,2.9172,2.9081,2.9167,2.9167,2.9166,2.9166,2.9166,0,2.9275,2.9266,2.9272,2.9269,2.9274,2.9247,2.9242,2.9248,2.9259,2.9252,2.9255,2.9264,2.9269,2.9251,2.9254,2.9264,2.9252,2.9266,2.9265,2.9264,2.9188,2.9182,2.9275,2.9275,2.9275,2.9275,2.9275,2.9275,2.9327,2.9351,2.9336,2.9356,2.9346,2.9358,2.9357,2.9354,2.9348,2.936,2.9364,2.9351,2.934,2.934,2.9344,2.9338,2.9341,2.9359,2.935,2.928,2.9269,2.9259,2.9253,2.936,2.936,2.9424,2.9425,2.9425]}]]